Date,TemperatureHighF,TemperatureAvgF,TemperatureLowF,DewpointHighF,DewpointAvgF,DewpointLowF,HumidityHigh,HumidityAvg,HumidityLow,PressureMaxIn,PressureMinIn,WindSpeedMaxMPH,WindSpeedAvgMPH,GustSpeedMaxMPH,PrecipitationSumIn
2013-2-1,43.9,28.0,15.0,22.4,14.7,6.7,75,59,32,30.76,30.64,14,2,14,0.00
2013-2-2,47.9,30.1,17.8,24.1,14.9,10.1,79,55,30,30.83,30.75,8,1,8,0.00
2013-2-3,45.4,33.7,23.9,21.7,16.5,9.7,63,49,36,30.76,30.36,10,2,10,0.00
2013-2-4,49.2,33.3,21.1,24.3,17.6,12.6,77,55,26,30.46,30.33,11,1,11,0.00
2013-2-5,53.1,34.0,21.6,24.6,17.1,11.2,68,52,28,30.45,30.34,9,1,9,0.00
2013-2-6,49.9,36.0,24.4,26.9,20.2,14.0,67,53,36,30.36,30.18,13,2,13,0.00
2013-2-7,46.4,33.6,24.7,25.6,20.6,16.0,78,60,34,30.50,30.30,11,1,11,0.00
2013-2-8,44.8,33.5,22.9,25.4,19.6,15.6,80,58,36,30.50,30.13,22,2,22,0.00
2013-2-9,38.9,30.4,20.0,20.6,13.3,4.4,81,52,27,30.13,29.78,33,6,33,0.00
2013-2-10,30.2,21.7,14.4,19.2,12.4,6.0,83,67,53,30.46,30.08,15,2,15,0.00
2013-2-11,31.7,22.4,12.6,18.0,12.0,5.8,85,66,38,30.51,30.41,19,2,19,0.01
2013-2-12,31.4,17.9,5.6,12.7,6.7,-0.3,83,64,36,30.72,30.44,9,1,9,0.06
2013-2-13,41.0,23.1,7.0,19.4,9.9,0.4,76,59,36,30.74,30.56,9,1,9,0.00
2013-2-14,42.7,26.7,15.6,22.9,13.2,7.9,74,58,34,30.65,30.48,14,2,14,0.00
2013-2-15,38.2,27.4,20.6,21.8,13.1,5.4,83,57,31,30.84,30.64,16,2,16,0.00
2013-2-16,47.4,29.9,16.6,16.2,10.2,4.2,62,45,26,30.87,30.58,13,2,13,0.00
2013-2-17,48.0,25.5,18.9,14.1,7.4,3.1,58,47,19,30.58,30.35,7,1,7,0.00
2013-2-18,41.8,30.9,17.9,12.4,8.0,1.7,56,39,22,30.49,30.07,5,3,19,0.00
2013-2-19,49.0,31.6,16.7,21.2,8.2,-5.4,68,39,23,30.50,30.13,9,3,26,0.00
2013-2-20,40.6,29.5,18.9,27.8,23.2,15.2,88,78,41,30.13,29.77,10,2,26,0.05
2013-2-21,32.0,25.3,17.3,24.3,18.9,12.5,88,77,66,30.32,29.90,14,2,14,0.05
2013-2-22,33.1,23.9,15.8,22.9,18.0,10.7,92,78,55,30.44,30.27,15,2,15,0.01
2013-2-23,40.9,22.6,0.5,21.8,11.2,-4.3,87,64,37,30.59,30.19,12,1,12,0.02
2013-2-24,34.4,26.1,21.0,20.4,15.6,7.9,82,65,44,30.24,29.96,23,2,23,0.00
2013-2-25,38.2,24.7,10.8,15.8,9.1,2.7,72,53,31,30.51,30.24,12,2,12,0.02
2013-2-26,34.4,23.8,11.8,13.5,8.0,2.2,79,52,32,30.52,30.16,24,3,24,0.00
2013-2-27,28.0,13.7,7.1,13.8,5.8,0.6,79,71,52,30.76,30.52,6,1,6,0.00